Current Version              Previous Version:    01  02  03  04  05  06  07  08  09  10  11  12  13  14  15  16  17  18  19  20  21  22  23  24  25  26  27  28  29  30  
   31  32  33  34  35  36  37  38  39  40  41  42  43  44  45  46  47  48  49  50  51  52  53  54  55  56  57  58  59  60  

[Printable]
663
ASUS44 KEWX 210202
RWRTX
SOUTH TEXAS REGIONAL WEATHER ROUNDUP
NATIONAL WEATHER SERVICE AUSTIN/SAN ANTONIO TX
800 PM CST SAT DEC 20 2014

NOTE: "FAIR" INDICATED FEW OR NO CLOUDS BELOW 12,000 FEET WITH NO
SIGNIFICANT WEATHER AND/OR OBSTRUCTIONS TO VISIBILITY.

* - THESE STATIONS ARE NOT NWS OR FAA STATIONS...AND ARE NOT SUBJECT
    TO NWS AND FAA QUALITY CONTROL.

TXZ171-172-183>190-210300-
TEXAS HILL COUNTRY AND EDWARDS PLATEAU

CITY           SKY/WX    TMP DP  RH WIND       PRES   REMARKS
JUNCTION       MOCLDY    48  42  80 E12       30.12R WCI  43
*LLANO         CLOUDY    48  43  81 SE6       30.20R WCI  46
BURNET         CLOUDY    49  42  77 SE3       30.18R
*HORSESHOE BAY CLOUDY    49  43  78 CALM      30.17S
*KERRVILLE     CLEAR     45  41  88 E5        30.15R WCI  42
*FREDERICKSBRG CLEAR     44  40  87 CALM      30.15R
*ROCKSPRINGS   CLOUDY    46  45  93 S7        30.13S WCI  43
*BOERNE STAGE  CLEAR     45  37  76 CALM      30.17R
*CASTROVILLE   CLOUDY    52  44  75 SE7       30.18R
HONDO          CLEAR     49  44  83 SE6       30.17R WCI  46
*UVALDE        CLEAR     41  39  93 SE3       30.16R
DEL RIO        CLOUDY    54  47  77 SE10      30.13R
LAUGHLIN AFB   CLOUDY    53  47  81 S10       30.13R
CARRIZO SPRGS  CLOUDY    52  45  76 SE3       30.15S
$$

TXZ173-191>194-202-209-217>225-228-210300-
CENTRAL AND SOUTH CENTRAL TEXAS

CITY           SKY/WX    TMP DP  RH WIND       PRES   REMARKS
GEORGETOWN     CLOUDY    50  46  87 E6        30.17R WCI  48
AUSTIN/BERGSTM CLOUDY    51  47  86 NE6       30.18R
AUSTIN/MABRY   CLOUDY    51  46  83 VRB3      30.19R
*AUSTIN/EXEC   CLOUDY    50  46  87 E5        30.18S FOG     WCI  48
*LAGO VISTA    CLOUDY    50  46  87 E3        30.17R
SAN MARCOS     CLOUDY    52  46  82 NE7       30.17S
NEW BRAUNFELS  CLOUDY    53  47  79 E6        30.16R
RANDOLPH AFB   NOT AVBL
PT SAN ANTONIO CLOUDY    53  44  71 E5        30.15R
SAN ANTONIO    CLOUDY    52  43  71 E6        30.16S
STINSON FIELD  CLOUDY    54  44  69 E5        30.15R
*PLEASANTON    CLOUDY    53  46  79 CALM      30.18R
*LA GRANGE     LGT RAIN  53  51  93 E5        30.17R
*GIDDINGS      CLOUDY    52  48  86 CALM      30.22S
*GONZALES      NOT AVBL
$$

TXZ163>164-176>182-195>201-210>213-226-227-235-210300-
SOUTHEAST TEXAS

CITY           SKY/WX    TMP DP  RH WIND       PRES   REMARKS
COLLEGE STN    CLOUDY    51  45  79 NE6       30.20R
*BRYAN         CLOUDY    49  46  88 E3        30.21R
*CALDWELL      CLOUDY    50  48  93 CALM      30.22R
*CROCKETT      CLOUDY    52  48  87 NW6       30.23R
*BRENHAM       CLOUDY    52  48  87 CALM      30.21R
HUNTSVILLE     CLOUDY    50  46  86 CALM      30.19R
CONROE         CLOUDY    50  47  89 NW3       30.19R
HOUSTON BUSH   PTCLDY    51  47  86 NW3       30.18R
HOUSTON HOBBY  MOCLDY    52  48  86 NW6       30.18R
*HOUSTON SW AP CLOUDY    45  43  92 N6        30.19R WCI  42
PEARLAND       MOCLDY    53  49  86 VRB6      30.19R
HOUSTON HOOKS  CLOUDY    52  47  83 CALM      30.18S
ELLINGTON FLD  PTCLDY    52  48  87 CALM      30.19R
SUGAR LAND     CLOUDY    53  48  83 NE8       30.18R
*HOUSTON EXEC  CLOUDY    52  48  87 NE7       30.20R
*CLEVELAND MUN MOCLDY    50  49  94 CALM      30.18S
*WHARTON       CLOUDY    53  50  89 CALM      30.19R
*COLUMBUS      CLOUDY    50  49  96 N3        30.18R
$$

TXZ214>216-236>238-210300-
THE UPPER TEXAS COAST

CITY           SKY/WX    TMP DP  RH WIND       PRES   REMARKS
*ORANGE        PTCLDY    51  47  86 N6        30.18S
PORT ARTHUR    PTCLDY    53  48  83 NE7       30.16R
GALVESTON      MOCLDY    53  50  89 NE7       30.18R
ANGLETON       CLOUDY    52  51  97 NE5       30.17R
*BAY CITY        N/A     55  53  94 CALM      30.18R
PALACIOS       CLOUDY    55  51  86 N5        30.17R
$$

TXZ229>234-239>247-210300-
TEXAS COASTAL BEND AND RIO GRANDE PLAINS

CITY           SKY/WX    TMP DP  RH WIND       PRES   REMARKS
VICTORIA       CLOUDY    55  51  86 NE8       30.18R
*BEEVILLE      CLOUDY    55  51  86 CALM      30.16S
ROCKPORT       CLOUDY    55  51  86 N7        30.16S
*PORT ARANSAS  CLOUDY    55  51  86 N9        30.14F
*PORT LAVACA   CLOUDY    54  51  90 NE7       30.17F
*INGLESIDE     CLOUDY    56  49  79 NE6       30.15F
CORPUS CHRISTI CLOUDY    56  49  77 NE8       30.16R
CORPUS NAS     CLOUDY    56  51  84 NE9       30.15S
*ROBSTOWN      NOT AVBL
ALICE          CLOUDY    55  49  80 N3        30.16R
KINGSVILLE NAS CLOUDY    56  53  90 NE7       30.16R
COTULLA        CLOUDY    54  45  71 E7        30.17R
LAREDO         CLOUDY    54  46  76 E6        30.18R
$$

TXZ248>255-210300-
DEEP SOUTH TEXAS

CITY           SKY/WX    TMP DP  RH WIND       PRES   REMARKS
BROWNSVILLE    CLOUDY    58  54  86 N8        30.12R
PORT ISABEL    CLOUDY    58  54  86 N12       30.11S
*SOUTH PADRE   CLOUDY    61  57  88 NE13G18   30.11R
HARLINGEN      CLOUDY    57  53  86 N8        30.13R
*HEBBRONVILLE  CLOUDY    52  48  86 NE3       30.15R FOG
MCALLEN        CLOUDY    56  51  84 N8        30.15R
*WESLACO       CLOUDY    56  50  80 N6        30.13S
FALFURRIAS     CLOUDY    55  50  83 CALM      30.15R
EDINBURG       CLOUDY    56  51  81 N7        30.15R
*ZAPATA        CLOUDY    54  47  78 NE3       30.14S
$$

TXZ213>215-236>238-242>244-246-247-251-254-255-210300-
CMAN STATIONS

STATION/POSITION TIME  TEMP    WIND        PRES    WAVE
                       AIR SEA DIR/SP/G            HT/PER
                 (UTC) (F)     (DEG/KT/KT) (MB)    (FT/S)
SABINE PASS      0100   56 60   30/  7/ 11 1020.9
SEA RIM ST PARK  0100   51     340/  6/  6 1021.4
NORTH JETTY/GLS  0100   53 60   30/  5/  7   N/A
EAGLE POINT      0100   53 60  360/  5/  6 1021.7
MORGANS POINT    0100   53      10/  4/  6 1021.5
MISSION/ARANSAS  0100   55      50/  6     1022.0
PORT O`CONNOR    0100           20/  7/  9   N/A
PORT ARANSAS     0100   55 63  350/  9/ 10 1021.1
MALAQUITE BEACH  0100   56 65  350/  9/ 11 1020.3
BAFFIN BAY       0100   56     360/ 11/ 13 1020.8
PORT ISABEL      0100   59 67  340/  8/ 15 1019.5
$$

GMZ080-GMZ150>470-210300-
OFFSHORE BUOY REPORTS

STATION/POSITION TIME  TEMP    WIND        PRES    WAVE
                       AIR SEA DIR/SP/G            HT/PER
                 (UTC) (F)     (DEG/KT/KT) (MB)    (FT/S)
20 E GALVESTON   0200   56 64  360/  8/ 12 1021.2    3/ 6
90 E PT ARANSAS  0200   62 72   20/ 16/ 17 1019.8    4/ 6
35 NE PT MANSFLD 0100   63 73   20/ 17/ 21 1018.5    5/ 7
200 E PT ISABEL  0100   70 73   40/ 14/ 16 1017.1    5/ 7
$$